Swanton, VT

3:10 AM EDT on September 30, 2016 (GMT -0400)
Franklin County State

Weather History for KFSO - March, 2013

Change the Weather History Date:

Tuesday, March 19, 2013

  Actual Average (KPBG) Record (KPBG)
Temperature  
Mean Temperature 32 °F 31 °F  
Max Temperature 34 °F 41 °F 74 °F (2012)
Min Temperature 29 °F 22 °F -14 °F (1993)
Degree Days  
Heating Degree Days 34 34  
Month to date heating degree days 693  
Since 1 July heating degree days 6305  
Cooling Degree Days 0 0  
Month to date cooling degree days 0  
Year to date cooling degree days 0  
Moisture  
Dew Point 27 °F    
Average Humidity 84    
Maximum Humidity 92    
Minimum Humidity 29    
Precipitation  
Precipitation 0.00 in - 0.35 in (1984)
Month to date precipitation  
Year to date precipitation  
Sea Level Pressure  
Sea Level Pressure 29.85 in    
Wind  
Wind Speed 5 mph (SE)    
Max Wind Speed 9 mph    
Max Gust Speed -    
Visibility 3 miles    
Events Snow    
T = Trace of Precipitation, MM = Missing Value Source: NWS Daily Summary

Daily Weather History Graph

Daily Weather History Graph

Search for Another Location

Airport or City:

Trip Planner

Search our weather history database for the weather conditions in past years. The results will help you decide how hot, cold, wet, or windy it might be!

Date:

Astronomy

Mar. 19, 2013 Rise Set
Actual Time 6:56 AM EDT 7:03 PM EDT
Civil Twilight 6:27 AM EDT 7:33 PM EDT
Nautical Twilight 5:53 AM EDT 8:07 PM EDT
Astronomical Twilight 5:18 AM EDT 8:42 PM EDT
Moon 11:30 AM EDT (3/19) 2:03 AM EDT (3/19)
Length of Visible Light 13h 05m
Length of Day
12h 06m
Waxing Crescent, 49% of the Moon is Illuminated
Mar 19
Waxing Crescent
Mar 19
First Quarter
Mar 27
Full
Apr 3
Last Quarter
Apr 10
New

Hourly Weather History & Observations

Time (EDT) Temp. Windchill Dew Point Humidity Pressure Visibility Wind Dir Wind Speed Gust Speed Precip Events Conditions
12:15 AM 34.2 °F 27.5 °F 4.5 °F 29% 30.06 in 10.0 mi SE 8.1 mph - N/A   Overcast
12:35 AM 34.2 °F 29.0 °F 5.0 °F 29% 30.06 in 10.0 mi SSW 5.8 mph - N/A   Overcast
12:55 AM 32.0 °F 27.5 °F 9.9 °F 40% 30.05 in 10.0 mi SW 4.6 mph - N/A   Overcast
1:15 AM 32.0 °F 28.7 °F 12.4 °F 44% 30.05 in 10.0 mi South 3.5 mph - N/A   Overcast
1:35 AM 30.7 °F 24.9 °F 18.9 °F 61% 30.04 in 7.0 mi SSE 5.8 mph - N/A Snow Light Snow
1:55 AM 29.3 °F 23.2 °F 22.6 °F 76% 30.04 in 2.0 mi SE 5.8 mph - N/A Snow Light Snow
2:15 AM 29.3 °F 21.5 °F 24.8 °F 83% 30.03 in 1.0 mi SE 8.1 mph - N/A Snow Snow
2:35 AM 29.3 °F 20.8 °F 25.7 °F 86% 30.02 in 1.2 mi ESE 9.2 mph - N/A Snow Light Snow
2:55 AM 29.3 °F 21.5 °F 25.7 °F 86% 30.01 in 1.0 mi ESE 8.1 mph - N/A Snow Snow
3:15 AM 29.3 °F 21.5 °F 26.1 °F 88% 29.99 in 1.0 mi ESE 8.1 mph - N/A Snow Snow
3:35 AM 29.3 °F 22.3 °F 26.2 °F 88% 29.97 in 0.8 mi ESE 6.9 mph - N/A Snow Snow
3:55 AM 29.3 °F 20.8 °F 26.4 °F 89% 29.97 in 1.0 mi SE 9.2 mph - N/A Snow Snow
4:15 AM 29.3 °F 22.3 °F 26.4 °F 89% 29.96 in 1.0 mi SE 6.9 mph - N/A Snow Snow
4:35 AM 29.3 °F 21.5 °F 26.6 °F 90% 29.95 in 1.0 mi SE 8.1 mph - N/A Snow Snow
4:55 AM 29.3 °F 21.5 °F 26.6 °F 90% 29.93 in 1.0 mi SE 8.1 mph - N/A Snow Snow
5:15 AM 29.3 °F 22.3 °F 26.6 °F 90% 29.94 in 1.0 mi SE 6.9 mph - N/A Snow Snow
5:35 AM 29.3 °F 24.3 °F 26.6 °F 90% 29.93 in 1.0 mi ESE 4.6 mph - N/A Snow Snow
5:55 AM 29.3 °F 23.2 °F 26.6 °F 90% 29.93 in 1.0 mi SE 5.8 mph - N/A Snow Snow
6:15 AM 29.3 °F 23.2 °F 26.6 °F 90% 29.93 in 1.5 mi SSE 5.8 mph - N/A Snow Light Snow
6:35 AM 29.3 °F 24.3 °F 26.6 °F 90% 29.92 in 1.2 mi SE 4.6 mph - N/A Snow Light Snow
6:55 AM 29.3 °F 24.3 °F 26.6 °F 90% 29.91 in 1.8 mi ESE 4.6 mph - N/A Snow Light Snow
7:15 AM 29.3 °F 23.2 °F 26.6 °F 90% 29.91 in 1.0 mi SE 5.8 mph - N/A Snow Light Snow
7:35 AM 29.3 °F 23.2 °F 26.6 °F 90% 29.90 in 1.5 mi SE 5.8 mph - N/A Snow Light Snow
7:55 AM 29.3 °F 22.3 °F 26.4 °F 89% 29.89 in 2.5 mi SE 6.9 mph - N/A Snow Light Snow
8:15 AM 30.0 °F 23.2 °F 26.2 °F 86% 29.88 in 10.0 mi SE 6.9 mph - N/A Snow Light Snow
8:35 AM 31.6 °F 25.1 °F 26.4 °F 81% 29.88 in 10.0 mi SE 6.9 mph - N/A   Overcast
8:55 AM 32.0 °F 25.6 °F 25.0 °F 75% 29.87 in 10.0 mi SE 6.9 mph - N/A   Overcast
9:15 AM 33.1 °F 26.9 °F 25.7 °F 74% 29.87 in 10.0 mi SE 6.9 mph - N/A   Overcast
9:35 AM 34.2 °F 30.0 °F 26.6 °F 74% 29.87 in 5.0 mi SE 4.6 mph - N/A Snow Light Snow
9:55 AM 34.0 °F 28.8 °F 27.1 °F 76% 29.87 in 5.0 mi SE 5.8 mph - N/A Snow Light Snow
10:15 AM 32.0 °F 27.5 °F 26.2 °F 79% 29.86 in 10.0 mi ESE 4.6 mph - N/A Snow Light Snow
10:35 AM 32.0 °F 27.5 °F 26.8 °F 81% 29.86 in 0.5 mi ESE 4.6 mph - N/A Snow Snow
10:55 AM 32.0 °F 28.7 °F 27.5 °F 83% 29.86 in 2.5 mi SE 3.5 mph - N/A Snow Light Snow
11:15 AM 34.0 °F 28.8 °F 30.2 °F 86% 29.86 in 1.0 mi SSE 5.8 mph - N/A Snow Light Snow
11:35 AM 34.2 °F 29.0 °F 30.2 °F 85% 29.85 in 2.0 mi SSE 5.8 mph - N/A Snow Light Snow
11:55 AM 34.2 °F 30.0 °F 30.2 °F 85% 29.84 in 4.0 mi SE 4.6 mph - N/A Snow Light Snow
12:15 PM 34.2 °F 29.0 °F 30.2 °F 85% 29.84 in 3.0 mi SE 5.8 mph - N/A Snow Light Snow
12:35 PM 34.2 °F 29.0 °F 30.0 °F 85% 29.84 in 1.0 mi SE 5.8 mph - N/A Snow Light Snow
12:55 PM 34.2 °F 29.0 °F 30.2 °F 85% 29.84 in 0.8 mi South 5.8 mph - N/A Snow Light Snow
1:15 PM 34.2 °F 29.0 °F 30.2 °F 85% 29.82 in 2.5 mi SE 5.8 mph - N/A Snow Light Snow
1:35 PM 34.2 °F 31.2 °F 30.6 °F 87% 29.81 in 1.5 mi SE 3.5 mph - N/A Snow Light Snow
1:55 PM 34.2 °F - 30.7 °F 87% 29.81 in 1.5 mi Calm Calm - N/A Snow Light Snow
2:15 PM 34.2 °F 31.2 °F 30.9 °F 88% 29.79 in 1.2 mi SSE 3.5 mph - N/A Snow Light Snow
2:35 PM 34.2 °F 29.0 °F 30.9 °F 88% 29.77 in 1.0 mi ESE 5.8 mph - N/A Snow Light Snow
2:55 PM 34.2 °F 29.0 °F 30.9 °F 88% 29.77 in 1.2 mi ESE 5.8 mph - N/A Snow Light Snow
3:15 PM 34.2 °F 31.2 °F 30.6 °F 87% 29.77 in 1.8 mi SE 3.5 mph - N/A Snow Light Snow
3:35 PM 34.2 °F 29.0 °F 30.6 °F 87% 29.76 in 1.5 mi SE 5.8 mph - N/A Snow Light Snow
3:55 PM 34.2 °F 29.0 °F 30.2 °F 85% 29.75 in 5.0 mi SE 5.8 mph - N/A Snow Light Snow
4:15 PM 34.2 °F 30.0 °F 30.2 °F 85% 29.75 in 3.0 mi ESE 4.6 mph - N/A Snow Light Snow
4:35 PM 34.2 °F 29.0 °F 30.2 °F 85% 29.74 in 5.0 mi SE 5.8 mph - N/A Snow Light Snow
4:55 PM 34.2 °F 31.2 °F 30.2 °F 85% 29.74 in 1.0 mi SE 3.5 mph - N/A Snow Light Snow
5:15 PM 33.3 °F - 30.6 °F 90% 29.74 in 1.0 mi Calm Calm - N/A Snow Light Snow
5:35 PM 33.6 °F - 30.9 °F 90% 29.74 in 1.5 mi Calm Calm - N/A Snow Light Snow
5:55 PM 34.2 °F - 31.1 °F 89% 29.74 in 1.2 mi Calm Calm - N/A Snow Light Snow
6:15 PM 34.2 °F - 31.1 °F 89% 29.74 in 0.8 mi Calm Calm - N/A Snow Light Snow
6:35 PM 33.3 °F - 30.7 °F 90% 29.74 in 1.0 mi Calm Calm - N/A Snow Light Snow
6:55 PM 32.0 °F 27.5 °F 29.1 °F 89% 29.74 in 0.5 mi ESE 4.6 mph - N/A Snow Snow
7:15 PM 32.0 °F 28.7 °F 29.3 °F 90% 29.74 in 0.8 mi ESE 3.5 mph - N/A Snow Light Snow
7:35 PM 31.6 °F 27.0 °F 29.1 °F 90% 29.74 in 2.0 mi ESE 4.6 mph - N/A Snow Light Snow
7:55 PM 31.1 °F 27.7 °F 28.6 °F 90% 29.73 in 1.5 mi ESE 3.5 mph - N/A Snow Light Snow
8:15 PM 30.7 °F - 28.2 °F 90% 29.74 in 2.0 mi Calm Calm - N/A Snow Light Snow
8:35 PM 30.7 °F - 28.2 °F 90% 29.74 in 2.5 mi Calm Calm - N/A Snow Light Snow
8:55 PM 30.7 °F - 28.2 °F 90% 29.73 in 2.5 mi Calm Calm - N/A Snow Light Snow
9:15 PM 30.7 °F 27.3 °F 28.4 °F 91% 29.73 in 2.0 mi ESE 3.5 mph - N/A Snow Light Snow
9:35 PM 30.7 °F - 28.2 °F 90% 29.74 in 2.0 mi Calm Calm - N/A Snow Light Snow
9:55 PM 30.4 °F - 28.2 °F 92% 29.74 in 1.5 mi Calm Calm - N/A Snow Light Snow
10:15 PM 30.2 °F - 27.9 °F 91% 29.74 in 0.8 mi Calm Calm - N/A Snow Snow
10:35 PM 30.6 °F - 28.2 °F 91% 29.74 in 0.8 mi Calm Calm - N/A Snow Snow
10:55 PM 30.9 °F - 28.4 °F 90% 29.73 in 2.0 mi Calm Calm - N/A Snow Light Snow
11:15 PM 31.1 °F - 28.9 °F 92% 29.72 in 4.0 mi Calm Calm - N/A Snow Light Snow
11:35 PM 31.3 °F - 28.9 °F 91% 29.72 in 4.0 mi Calm Calm - N/A Snow Light Snow
11:55 PM 30.6 °F - 27.9 °F 90% 29.71 in 7.0 mi Calm Calm - N/A Snow Light Snow